Location: Unspecified
(0.0000°N, 0.0000°E)
Time: 07:58:15
(UTC+00:00)

N. Korean satellite - Pass Details

Date: 17 November 2017
Orbit: 460 x 514 km, 97.2° (Epoch: 20 November)

Event Time Altitude Azimuth Distance (km) Brightness Sun altitude
Rises 19:15:59 0° 204° (SSW) 2,484 10.8 -21.4°
Reaches altitude 10° 19:19:20 10° 240° (WSW) 1,603 10.3 -22.2°
Maximum altitude 19:20:24 11° 259° (WSW) 1,530 10.2 -22.4°
Drops below altitude 10° 19:21:29 10° 277° (W) 1,601 10.0 -22.7°
Sets 19:24:50 0° 313° (NW) 2,474 10.5 -23.5°
